[[{"header":{"parameterUnit":"m.s-1","parameterCategory":1,"la1":30.2991,"la2":30.254,"lo1":-89.0895,"lo2":-89.0444,"dy":0.0017,"dx":0.0017,"nx":28,"ny":28,"refTime":"2025-01-04T03:00:00:Z","depth":0,"parameterNumber":2,"parameterNumberName":"U-component_of_WINDS"},"data":[0,0,0,0,0,0,0,0,0,0,0,0,0,0,0,0,0,0,0,0,0,0,0,0,0,0,0,0,0,0,0,0,0,0,0,0,0,0,0,0,0,0,0,0,0,0,0,0,0,0,0,0,0,0,0,0,0,0,-5.5004,-5.5005,0,-5.5062,-5.5063,-5.5063,-5.4895,-5.489,-5.4885,-5.488,-5.494,-5.4946,-5.4953,0,0,0,0,0,0,0,0,0,0,0,0,0,-5.4748,-5.4754,-5.5004,-5.5005,-5.5005,-5.5062,-5.5063,-5.5063,-5.4896,-5.489,-5.4884,-5.4878,-5.4938,-5.4946,-5.4953,0,0,0,0,0,0,0,0,0,0,0,0,0,-5.4838,-5.4756,-5.5004,-5.4929,-5.4923,-5.5062,-5.5063,-5.5064,-5.4898,-5.489,-5.4882,-5.4875,-5.4935,-5.4945,-5.4954,-5.5169,0,0,-5.4984,-5.4988,0,0,0,0,0,0,0,0,-5.4833,-5.4848,-5.4939,-5.4934,-5.4928,-5.4963,-5.4994,-5.5099,-5.49,-5.4907,-5.488,-5.4871,-5.4954,-5.4962,-5.499,-5.5171,-5.5174,-5.4984,-5.499,-5.4994,-5.4997,0,0,0,0,0,0,0,-5.4827,-5.4844,-5.5027,-5.4941,-5.4934,-5.4892,-5.4896,-5.5013,-5.4973,-5.4906,-5.4894,-5.4903,-5.4949,-5.4981,-5.499,-5.5175,-5.4984,-5.4993,-5.4999,-5.5002,-5.5534,-5.5542,0,0,0,0,0,0,-5.4831,-5.484,-5.5025,-5.5028,-5.486,-5.4903,-5.4908,-5.496,-5.4972,-5.4966,-5.491,-5.4895,-5.4968,-5.4979,-5.4991,-5.5242,-5.4994,-5.5003,-5.5009,-5.5526,-5.5536,-5.5545,0,0,0,0,0,0,-5.4826,-5.4849,-5.5023,-5.4931,-5.495,-5.4916,-5.4976,-5.4965,-5.4996,-5.4974,-5.4966,-5.4949,-5.4962,-5.4978,-5.5125,-5.5241,-5.5008,-5.5016,-5.5516,-5.5529,-5.554,-5.5745,0,0,0,0,0,0,-5.4819,-5.4848,-5.4929,-5.4934,-5.4956,-5.5157,-5.4983,-5.4972,-5.5013,-5.4994,-5.5009,-5.5004,-5.4958,-5.5112,-5.5135,-5.525,-5.5024,-5.5505,-5.5522,-5.5536,-5.5728,-5.5763,-5.5794,0,0,0,0,0,-5.4811,-5.4985,-5.4934,-5.4958,-5.5056,-5.5163,-5.5176,-5.5118,-5.5023,-5.5104,-5.509,-5.5004,-5.5226,-5.5129,-5.5153,-5.5273,-5.5498,-5.5517,-5.5535,-5.5713,-5.5756,-5.5793,0,0,0,0,0,0,-5.4995,-5.4984,-5.4928,-5.5109,-5.5139,-5.5135,-5.5235,-5.5166,-5.5223,-5.5203,-5.513,-5.5135,-5.5296,-5.5299,-5.5191,-5.5481,-5.5345,-5.537,-5.5472,-5.5513,-5.5545,-5.554,-5.5032,0,0,0,0,0,-5.5057,-5.5144,-5.513,-5.5292,-5.5309,-5.5271,-5.5315,-5.5268,-5.5296,-5.5307,-5.5304,-5.5334,-5.541,-5.5462,-5.5531,-5.5728,-5.5728,-5.5823,-5.5856,-5.5883,-5.5904,-5.6008,-5.6049,-5.5607,-5.5606,-5.5606,0,0,-5.5185,-5.519,-5.525,-5.5329,-5.5346,-5.5438,-5.5282,-5.5386,-5.5454,-5.5323,-5.5462,-5.5461,-5.549,-5.5663,-5.5739,-5.5671,-5.6027,-5.5907,-5.5928,-5.5935,-5.6032,-5.6073,-5.6111,-5.5619,-5.5617,-5.5615,0,0,-5.5465,-5.5478,-5.5613,-5.5634,-5.5662,-5.5635,-5.5668,-5.5675,-5.5669,-5.5807,-5.5711,-5.5791,-5.5924,-5.5948,-5.5977,-5.6268,-5.619,-5.6292,-5.6463,-5.6565,-5.6599,-5.663,-5.6732,-5.677,-5.6314,-5.6315,-5.6315,0,-5.562,-5.5756,-5.5691,-5.5802,-5.584,-5.5726,-5.5861,-5.5885,-5.5934,-5.5963,-5.5885,-5.6049,-5.6061,-5.6238,-5.6308,-5.6337,-5.6371,-5.6289,-5.66,-5.663,-5.6657,-5.6754,-5.6793,-5.6327,-5.6325,-5.6324,-5.6323,0,-5.5945,-5.604,-5.6146,-5.6196,-5.6245,-5.6369,-5.6323,-5.6381,-5.633,-5.6312,-5.6454,-5.6464,-5.6532,-5.6571,-5.6523,-5.6741,-5.6698,-5.6612,-5.6474,-5.6713,-5.6802,-5.6839,-5.6344,-5.634,-5.6336,-5.6333,0,0,-5.6342,-5.6355,-5.6395,-5.6416,-5.6439,-5.6511,-5.6629,-5.6696,-5.6746,-5.6785,-5.6881,-5.6997,-5.6917,-5.6951,-5.6905,-5.6994,-5.7222,-5.6897,-5.6896,-5.6956,-5.7462,-5.7525,-5.7569,-5.7171,-5.7178,-5.7184,-5.7459,0,-5.6616,-5.6818,-5.6764,-5.6965,-5.7051,-5.6945,-5.7047,-5.7073,-5.7059,-5.713,-5.7114,-5.7197,-5.7086,-5.7106,-5.719,-5.7177,-5.7322,-5.7156,-5.726,-5.7264,-5.7254,-5.7616,-5.7684,-5.7943,-5.7494,-5.75,-5.7504,0,-5.6964,-5.7015,-5.7225,-5.7233,-5.7267,-5.736,-5.7417,-5.7487,-5.7513,-5.7496,-5.7535,-5.7471,-5.7587,-5.745,-5.7608,-5.7496,-5.7535,-5.7536,-5.7544,-5.755,-5.7397,-5.7631,-5.8025,-5.8063,-5.7559,-5.7554,-5.755,0,-5.723,-5.7352,-5.7493,-5.7514,-5.7528,-5.7595,-5.7604,-5.7623,-5.7666,-5.7716,-5.7743,-5.7807,-5.7841,-5.7892,-5.7846,-5.775,-5.8011,-5.787,-5.8,-5.8001,-5.8058,-5.8055,-5.8463,-5.8087,-5.8087,-5.8086,-5.8085,0,-5.7542,-5.7674,-5.7612,-5.7699,-5.7844,-5.7781,-5.7926,-5.7922,-5.794,-5.8024,-5.7936,-5.8017,-5.7952,-5.8027,-5.7993,-5.8128,-5.8145,-5.8134,-5.8123,-5.8142,-5.8143,-5.8165,-5.8145,-5.8096,-5.8094,-5.8092,-5.809,0,-5.7863,-5.7827,-5.7973,-5.7974,-5.7977,-5.8084,-5.8084,-5.8164,-5.8144,-5.8251,-5.8273,-5.8242,-5.8325,-5.8285,-5.8373,-5.8349,-5.8524,-5.849,-5.8515,-5.8506,-5.8637,-5.8625,-5.9071,-5.9126,-5.8718,-5.8722,-5.8725,0,-5.8063,-5.8162,-5.8174,-5.8223,-5.8238,-5.832,-5.8363,-5.8305,-5.8354,-5.8392,-5.8468,-5.8544,-5.8601,-5.874,-5.8725,-5.8792,-5.8757,-5.8909,-5.8767,-5.8781,-5.8758,-5.8752,-5.8761,-5.8938,-5.8942,-5.8946,-5.8949,0,-5.8422,-5.84,-5.8466,-5.8527,-5.8582,-5.8627,-5.8665,-5.8711,-5.8654,-5.8714,-5.8798,-5.8843,-5.8932,-5.9009,-5.9067,-5.9075,-5.9004,-5.8995,-5.9028,-5.9047,-5.9057,-5.9051,-5.8592,-5.8984,-5.8981,-5.8978,-5.8976,-5.8975,-5.8688,-5.877,-5.8791,-5.8868,-5.889,-5.8928,-5.9002,-5.8992,-5.9061,-5.9129,-5.9091,-5.9189,-5.9213,-5.9283,-5.9302,-5.9378,-5.9317,-5.9366,-5.9378,-5.939,-5.9407,-5.9046,-5.9388,-5.9387,-5.9386,-5.9386,-5.9385,0,-5.904,-5.9048,-5.912,-5.9175,-5.9236,-5.9163,-5.9201,-5.9257,-5.9345,-5.9373,-5.9431,-5.9528,-5.9602,-5.9593,-5.9661,-5.9723,-5.9692,-5.9743,-5.9737,-5.974,-5.9458,-5.9422,-5.9767,-5.9767,-5.9767,-5.9767,-5.9767,-5.9767,-5.9231,-5.9366,-5.9347,-5.9492,-5.9499,-5.9595,-5.9623,-5.9657,-5.9678,-5.9791,-5.9851,-5.9845,-5.9858,-5.9926,-5.9991,-5.9986,-6.0014,-6.0078,-6.0061,-5.9798,-5.976,-5.9724,-5.9689,-6.0085,-6.0085,-6.0336,-6.0338,-6.034]},{"header":{"parameterUnit":"m.s-1","parameterCategory":1,"la1":30.2991,"la2":30.254,"lo1":-89.0895,"lo2":-89.0444,"dy":0.0017,"dx":0.0017,"nx":28,"ny":28,"refTime":"2025-01-04T03:00:00:Z","depth":0,"parameterNumber":3,"parameterNumberName":"V-component_of_WINDS"},"data":[0,0,0,0,0,0,0,0,0,0,0,0,0,0,0,0,0,0,0,0,0,0,0,0,0,0,0,0,0,0,0,0,0,0,0,0,0,0,0,0,0,0,0,0,0,0,0,0,0,0,0,0,0,0,0,0,0,0,-1.4,-1.4,0,-1.3992,-1.3992,-1.3992,-1.3987,-1.3987,-1.3987,-1.3987,-1.3978,-1.3978,-1.3978,0,0,0,0,0,0,0,0,0,0,0,0,0,-1.4007,-1.4007,-1.4,-1.4,-1.3999,-1.3992,-1.3992,-1.3992,-1.3987,-1.3987,-1.3987,-1.3987,-1.3978,-1.3978,-1.3978,0,0,0,0,0,0,0,0,0,0,0,0,0,-1.4002,-1.4007,-1.4,-1.3996,-1.3996,-1.3992,-1.3992,-1.3992,-1.3987,-1.3987,-1.3987,-1.3987,-1.3978,-1.3978,-1.3978,-1.3976,0,0,-1.3977,-1.3976,0,0,0,0,0,0,0,0,-1.4002,-1.4002,-1.3997,-1.3996,-1.3996,-1.399,-1.3991,-1.3987,-1.3987,-1.399,-1.3987,-1.3987,-1.3982,-1.3981,-1.398,-1.3976,-1.3976,-1.3977,-1.3976,-1.3976,-1.3976,0,0,0,0,0,0,0,-1.4003,-1.4002,-1.3997,-1.3997,-1.3996,-1.3994,-1.3993,-1.399,-1.3986,-1.399,-1.399,-1.3989,-1.3982,-1.398,-1.398,-1.3976,-1.3977,-1.3976,-1.3976,-1.3976,-1.3967,-1.3967,0,0,0,0,0,0,-1.4004,-1.4002,-1.3997,-1.3996,-1.3999,-1.3994,-1.3993,-1.3992,-1.3986,-1.3986,-1.3989,-1.3989,-1.3981,-1.398,-1.398,-1.3976,-1.3976,-1.3976,-1.3976,-1.3967,-1.3967,-1.3967,0,0,0,0,0,0,-1.4004,-1.4003,-1.3997,-1.3999,-1.3998,-1.3994,-1.3993,-1.3992,-1.3991,-1.3986,-1.3985,-1.3988,-1.3981,-1.398,-1.3977,-1.3976,-1.3976,-1.3976,-1.3968,-1.3967,-1.3967,-1.3971,0,0,0,0,0,0,-1.4004,-1.4004,-1.4004,-1.3999,-1.3998,-1.3995,-1.3993,-1.3992,-1.399,-1.399,-1.3985,-1.3984,-1.3981,-1.3977,-1.3976,-1.3975,-1.3975,-1.3968,-1.3968,-1.3967,-1.3971,-1.3971,-1.3971,0,0,0,0,0,-1.4005,-1.4006,-1.4004,-1.4003,-1.3999,-1.3995,-1.3995,-1.3991,-1.399,-1.399,-1.3986,-1.3984,-1.3976,-1.3977,-1.3976,-1.3975,-1.3968,-1.3968,-1.3967,-1.3971,-1.3971,-1.3971,0,0,0,0,0,0,-1.401,-1.4005,-1.4003,-1.4003,-1.4,-1.3995,-1.3994,-1.3992,-1.3989,-1.3988,-1.3984,-1.3983,-1.398,-1.3977,-1.3978,-1.3972,-1.3971,-1.3971,-1.3974,-1.3974,-1.3974,-1.3975,-1.3975,0,0,0,0,0,-1.4012,-1.401,-1.4005,-1.4005,-1.4004,-1.3999,-1.3998,-1.3995,-1.3991,-1.399,-1.3986,-1.3982,-1.3978,-1.3976,-1.3973,-1.397,-1.3968,-1.3969,-1.3969,-1.3969,-1.3969,-1.3965,-1.3965,-1.3967,-1.3967,-1.3967,0,0,-1.4014,-1.4011,-1.4011,-1.4006,-1.4003,-1.4001,-1.3998,-1.3996,-1.3994,-1.399,-1.3986,-1.3983,-1.3978,-1.3974,-1.3973,-1.3972,-1.3967,-1.3969,-1.3969,-1.3969,-1.3965,-1.3964,-1.3964,-1.3967,-1.3967,-1.3967,0,0,-1.4018,-1.4016,-1.4015,-1.4011,-1.4007,-1.4003,-1.4003,-1.3998,-1.3996,-1.3992,-1.3988,-1.3985,-1.3979,-1.3975,-1.3972,-1.3971,-1.3968,-1.397,-1.3971,-1.3967,-1.3967,-1.3966,-1.3965,-1.3964,-1.397,-1.397,-1.397,0,-1.4021,-1.4018,-1.4014,-1.4012,-1.4009,-1.4005,-1.4003,-1.4,-1.3994,-1.3992,-1.3991,-1.3982,-1.3979,-1.3973,-1.3973,-1.3971,-1.3969,-1.3971,-1.3967,-1.3967,-1.3967,-1.3965,-1.3964,-1.397,-1.397,-1.397,-1.397,0,-1.4022,-1.4019,-1.4019,-1.4013,-1.401,-1.4008,-1.4003,-1.4,-1.3997,-1.3993,-1.3988,-1.3984,-1.3978,-1.3977,-1.3974,-1.397,-1.397,-1.3968,-1.3967,-1.3967,-1.3965,-1.3964,-1.397,-1.397,-1.397,-1.397,0,0,-1.403,-1.4021,-1.4021,-1.4017,-1.401,-1.4008,-1.4004,-1.3999,-1.3996,-1.3992,-1.3988,-1.3982,-1.398,-1.3976,-1.3973,-1.397,-1.3967,-1.3969,-1.3968,-1.3967,-1.396,-1.3961,-1.396,-1.3965,-1.3965,-1.3965,-1.396,0,-1.4032,-1.4026,-1.4021,-1.4017,-1.4013,-1.4008,-1.4004,-1.3999,-1.3995,-1.399,-1.3986,-1.3981,-1.3979,-1.3977,-1.3974,-1.3968,-1.3965,-1.3969,-1.396,-1.396,-1.3961,-1.396,-1.3961,-1.3957,-1.396,-1.3959,-1.3959,0,-1.4033,-1.4028,-1.4023,-1.4015,-1.4013,-1.4011,-1.4004,-1.4,-1.3993,-1.399,-1.3986,-1.3982,-1.3976,-1.3975,-1.3967,-1.3969,-1.3965,-1.3961,-1.3961,-1.396,-1.396,-1.3957,-1.3955,-1.3954,-1.3958,-1.3959,-1.3959,0,-1.4038,-1.403,-1.4026,-1.4023,-1.4014,-1.4011,-1.4007,-1.4001,-1.3997,-1.399,-1.3988,-1.3981,-1.3977,-1.3971,-1.3965,-1.3965,-1.3956,-1.3956,-1.3953,-1.3953,-1.3951,-1.3951,-1.3947,-1.395,-1.395,-1.395,-1.395,0,-1.404,-1.4037,-1.4027,-1.4025,-1.402,-1.4014,-1.4009,-1.4005,-1.3998,-1.3993,-1.3988,-1.3983,-1.3976,-1.397,-1.3965,-1.3957,-1.3956,-1.3952,-1.3951,-1.3952,-1.3953,-1.395,-1.3949,-1.3949,-1.3949,-1.395,-1.395,0,-1.4045,-1.4039,-1.4033,-1.4024,-1.4021,-1.4018,-1.401,-1.4006,-1.4001,-1.3995,-1.3993,-1.3985,-1.3977,-1.397,-1.396,-1.3956,-1.3948,-1.3947,-1.3951,-1.395,-1.3947,-1.3947,-1.3941,-1.3939,-1.3943,-1.3943,-1.3943,0,-1.4046,-1.4043,-1.4034,-1.403,-1.4026,-1.402,-1.4016,-1.4009,-1.4004,-1.3995,-1.3992,-1.3984,-1.3977,-1.3965,-1.3957,-1.3949,-1.3947,-1.3945,-1.3946,-1.3946,-1.3945,-1.3945,-1.3944,-1.3945,-1.3945,-1.3945,-1.3945,0,-1.4049,-1.4045,-1.404,-1.4032,-1.4027,-1.4021,-1.4014,-1.4011,-1.4002,-1.3997,-1.3989,-1.3984,-1.3973,-1.3964,-1.3955,-1.3949,-1.3945,-1.3945,-1.3943,-1.3945,-1.3946,-1.3944,-1.395,-1.3945,-1.3945,-1.3945,-1.3945,-1.3945,-1.4051,-1.4048,-1.404,-1.4033,-1.4027,-1.402,-1.4016,-1.4009,-1.4002,-1.3993,-1.3989,-1.398,-1.3971,-1.3958,-1.3952,-1.3945,-1.3944,-1.3942,-1.3942,-1.3941,-1.3941,-1.3948,-1.3943,-1.3943,-1.3943,-1.3943,-1.3943,0,-1.4053,-1.4047,-1.404,-1.4031,-1.4025,-1.4021,-1.4013,-1.4008,-1.4,-1.3993,-1.3985,-1.3975,-1.3966,-1.3957,-1.3947,-1.3943,-1.394,-1.394,-1.394,-1.3939,-1.3943,-1.3944,-1.3942,-1.3942,-1.3942,-1.3942,-1.3942,-1.3942,-1.4053,-1.4046,-1.4041,-1.403,-1.4024,-1.4016,-1.4011,-1.4004,-1.3998,-1.3986,-1.3979,-1.3973,-1.3964,-1.3953,-1.3944,-1.3941,-1.3937,-1.3938,-1.3935,-1.3938,-1.3939,-1.3939,-1.394,-1.3937,-1.3937,-1.3931,-1.3931,-1.3931]}]]